Temperature
3 4 4 5 5 5 5 5 5 5 5 6 5 6 5 5 5 5 6 5 6 6 6 6 6 6 6 6 6 6 6 6 6 6 6 6 6 6 6 6 6 6 6
2 3 3 4 4 4 5 5 5 5 5 5 5 5 5 5 5 5 5 5 5 5 5 5 5 5 5 5 5 5 5 5 5 5 4 5 5 5 5 5 5 5 5
2 2 3 3 3 4 4 4 4 4 4 4 4 4 4 4 4 4 4 4 4 4 4 4 4 4 4 4 4 4 4 4 4 4 4 4 4 4 4 5 5 5 5
1 2 2 2 3 3 3 3 3 3 3 3 3 3 4 4 3 3 3 3 4 4 4 4 4 4 4 3 4 4 4 4 3 3 3 3 3 3 3 4 4 4 4
1 1 1 2 2 2 2 3 3 3 3 3 3 3 3 3 3 3 3 3 3 3 3 3 3 3 3 3 3 3 3 3 3 3 3 3 3 2 2 3 3 3 4
-0 0 1 1 1 1 2 2 2 2 2 2 2 2 2 2 2 2 2 2 2 2 2 2 2 2 2 2 2 2 2 2 2 2 2 2 2 2 2 2 2 2 3
-1 -0 0 0 0 1 1 1 1 1 1 1 1 1 1 1 1 1 1 2 2 2 2 2 2 2 2 2 1 1 2 1 1 1 1 1 1 1 1 1 1 1 1
-1 -1 -0 -0 -0 -0 0 0 0 1 1 1 1 1 1 0 0 0 1 1 1 1 1 1 1 1 1 1 1 1 1 1 1 1 1 1 1 1 1 0 0 0 1
-2 -1 -1 -1 -1 -1 -1 -0 -0 -0 -0 -0 -0 -0 -0 -0 -0 -0 -0 -0 -0 0 0 0 0 0 0 0 0 0 0 0 0 0 0 0 -0 -0 -0 -0 -0 -0 -0
-2 -2 -1 -1 -1 -1 -1 -1 -1 -1 -1 -1 -1 -1 -1 -1 -1 -1 -1 -1 -1 -1 -1 -1 -1 -1 -1 -1 -1 -1 -1 -1 -1 -1 -1 -1 -1 -1 -1 -1 -1 -1 -1
-2 -2 -2 -2 -2 -2 -2 -2 -2 -2 -2 -2 -2 -2 -2 -2 -2 -2 -2 -2 -2 -2 -2 -2 -2 -2 -1 -1 -2 -2 -2 -1 -1 -1 -1 -1 -1 -1 -1 -1 -1 -1 -1
-2 -2 -2 -2 -2 -2 -2 -2 -2 -2 -2 -2 -2 -2 -3 -3 -3 -3 -3 -3 -3 -3 -3 -3 -3 -2 -2 -2 -2 -2 -2 -2 -2 -2 -2 -2 -2 -2 -2 -2 -2 -2 -2
-3 -3 -3 -3 -3 -3 -3 -3 -3 -3 -3 -3 -3 -3 -3 -3 -3 -3 -3 -3 -4 -3 -3 -3 -3 -3 -3 -3 -3 -3 -3 -3 -3 -3 -3 -2 -3 -3 -3 -3 -3 -3 -3
-3 -3 -3 -4 -4 -4 -4 -4 -4 -4 -4 -4 -4 -4 -4 -4 -4 -4 -4 -4 -4 -4 -4 -4 -4 -4 -4 -4 -4 -4 -4 -4 -4 -3 -3 -3 -3 -3 -3 -3 -3 -3 -3
-4 -4 -4 -4 -4 -4 -4 -4 -4 -4 -4 -4 -4 -5 -5 -5 -5 -5 -5 -5 -5 -5 -5 -5 -5 -5 -5 -5 -5 -5 -5 -4 -4 -4 -4 -4 -4 -4 -4 -4 -4 -4 -4
-4 -4 -5 -5 -5 -5 -4 -5 -5 -5 -5 -5 -5 -5 -5 -6 -6 -6 -6 -6 -6 -6 -6 -6 -6 -6 -6 -6 -6 -6 -5 -5 -5 -5 -5 -5 -5 -5 -5 -5 -5 -5 -5
-5 -5 -5 -5 -5 -5 -5 -5 -5 -6 -6 -6 -6 -6 -6 -6 -6 -6 -7 -7 -7 -7 -7 -6 -6 -6 -6 -6 -6 -6 -6 -6 -6 -6 -6 -6 -6 -5 -5 -5 -5 -5 -5
-5 -5 -6 -6 -6 -6 -6 -6 -6 -6 -6 -7 -7 -7 -7 -7 -7 -7 -7 -7 -7 -7 -7 -7 -7 -7 -7 -7 -7 -7 -7 -7 -6 -6 -6 -6 -6 -6 -6 -6 -6 -6 -6
-6 -6 -6 -6 -6 -6 -6 -7 -7 -7 -8 -8 -8 -8 -8 -8 -8 -8 -8 -8 -8 -8 -8 -8 -8 -8 -8 -8 -8 -8 -8 -7 -7 -7 -7 -7 -7 -7 -7 -7 -7 -7 -6
-6 -6 -6 -7 -7 -7 -7 -7 -8 -8 -8 -9 -9 -9 -9 -9 -9 -9 -9 -9 -9 -9 -9 -9 -9 -9 -8 -8 -8 -8 -8 -8 -8 -8 -8 -8 -7 -7 -7 -7 -7 -7 -7
-7 -7 -7 -7 -8 -8 -8 -8 -9 -9 -9 -9 -9 -10 -9 -9 -9 -9 -9 -9 -9 -9 -9 -9 -9 -9 -9 -9 -9 -9 -9 -9 -9 -9 -8 -8 -8 -8 -8 -8 -8 -8 -8
-7 -8 -8 -8 -9 -9 -9 -9 -9 -10 -10 -10 -10 -10 -10 -10 -10 -10 -10 -10 -10 -10 -10 -10 -10 -10 -10 -10 -10 -10 -10 -10 -10 -9 -9 -9 -9 -9 -9 -9 -9 -9 -9
-8 -9 -9 -9 -9 -10 -10 -10 -10 -10 -10 -11 -11 -11 -11 -11 -11 -11 -11 -11 -11 -11 -11 -11 -11 -11 -10 -10 -10 -10 -10 -10 -10 -10 -10 -10 -10 -10 -10 -9 -9 -9 -9
-9 -9 -10 -10 -10 -10 -11 -11 -11 -11 -11 -11 -11 -11 -11 -11 -11 -11 -11 -11 -11 -12 -12 -12 -11 -11 -11 -11 -11 -11 -11 -11 -10 -10 -10 -10 -10 -11 -10 -10 -10 -10 -10
-10 -10 -10 -10 -11 -11 -11 -11 -11 -12 -12 -12 -12 -12 -12 -12 -12 -12 -12 -12 -12 -12 -12 -12 -12 -12 -12 -11 -11 -11 -11 -11 -11 -11 -11 -11 -11 -11 -11 -11 -11 -11 -11
-11 -11 -11 -11 -11 -11 -12 -12 -12 -12 -12 -12 -12 -12 -13 -13 -13 -13 -13 -12 -12 -12 -12 -13 -13 -12 -12 -12 -12 -12 -12 -12 -12 -12 -12 -12 -12 -12 -11 -11 -11 -11 -11
Wind_Speed
3 3 3 2 3 3 3 3 3 2 2 2 2 1 1 1 2 3 4 4 4 4 2 1 1 0 1 1 1 1 1 1 1 2 2 2 3 2 2 2 2 2 2
4 4 3 3 3 4 4 3 3 2 2 1 1 1 1 1 2 3 4 4 4 3 3 2 1 1 1 1 1 1 1 1 1 2 2 2 3 2 3 2 3 2 3
6 5 5 4 4 4 4 3 3 2 2 2 2 2 1 1 1 2 2 4 4 3 2 2 1 1 1 1 2 2 2 2 1 2 2 2 3 2 3 3 3 3 3
5 5 5 4 4 3 3 3 3 2 2 2 2 2 2 1 1 1 1 2 3 4 4 3 2 1 1 2 2 2 2 3 2 2 2 3 2 3 3 3 4 4 4
5 5 5 4 3 2 2 2 3 2 2 2 3 3 2 1 1 1 0 1 2 3 3 3 3 2 2 2 2 2 2 2 3 2 2 3 3 4 4 4 4 4 4
4 4 3 3 2 2 2 1 2 2 2 2 3 3 3 2 2 1 1 1 1 1 2 3 2 2 2 2 2 3 3 3 3 3 3 3 3 3 4 5 6 5 4
4 4 3 3 3 2 1 1 2 2 2 3 3 3 3 4 3 3 2 1 1 1 2 2 2 3 3 3 3 3 3 3 4 4 4 4 4 4 4 6 5 6 5
3 3 3 2 2 2 2 2 2 2 2 2 2 2 3 3 3 3 2 2 2 2 2 2 2 3 3 3 3 3 3 3 4 5 5 4 5 4 4 5 5 5 5
3 3 2 2 1 2 2 2 2 2 2 2 2 2 2 2 3 2 2 2 2 1 2 2 2 3 3 3 3 3 3 3 4 4 5 5 5 4 5 5 5 5 6
3 3 2 2 1 1 1 1 2 2 2 2 2 2 2 2 2 2 2 2 1 1 2 2 2 3 3 3 3 3 3 3 4 3 4 4 4 5 5 5 5 6 7
4 3 2 2 1 1 1 1 1 1 2 2 2 2 2 2 2 2 2 2 1 1 2 2 3 3 3 3 3 4 4 4 4 4 4 5 5 5 4 5 5 5 6
3 3 2 1 1 1 1 1 1 2 2 2 2 2 2 2 2 2 2 2 2 2 2 2 3 3 4 4 4 5 4 5 5 5 5 6 5 6 5 5 5 5 6
2 2 2 2 2 2 2 2 2 2 2 2 2 2 2 2 2 2 2 2 2 2 2 2 3 4 4 4 5 5 5 5 6 6 6 7 6 7 6 6 6 5 5
2 2 2 2 2 2 2 2 2 2 1 1 2 2 2 2 2 2 2 2 2 3 3 3 4 4 5 5 5 6 6 6 6 6 7 7 7 7 7 6 6 5 5
3 3 3 3 2 2 2 2 2 2 1 1 2 2 2 2 2 2 2 2 2 3 3 4 4 4 5 4 5 6 6 7 6 6 7 7 7 8 7 6 6 5 5
4 3 3 3 3 3 3 2 2 2 2 2 2 2 2 2 2 2 3 3 3 3 4 4 5 5 5 6 8 7 7 7 7 7 7 7 7 8 8 8 8 7 7
4 4 4 3 3 3 3 3 2 2 2 2 2 2 2 2 2 2 3 3 4 4 4 5 5 6 6 8 9 9 7 7 7 7 7 6 6 8 6 7 8 8 9
4 4 3 3 3 2 2 2 1 1 2 2 2 2 2 3 3 3 3 4 4 4 5 5 6 6 7 8 9 9 7 7 7 7 7 7 7 7 6 6 7 7 8
3 3 3 2 2 1 1 1 1 1 2 2 3 3 3 3 3 4 4 4 4 5 5 6 6 7 7 8 9 9 6 6 6 6 7 7 8 9 8 7 7 8 7
2 2 1 1 1 1 1 2 2 2 3 3 3 3 3 4 4 4 5 5 5 5 6 6 6 7 8 9 9 9 5 6 6 6 6 8 9 10 9 7 7 8 8
1 1 1 1 1 1 2 2 3 3 3 3 3 3 4 4 4 4 4 5 5 5 6 6 6 7 8 9 10 9 6 6 6 6 6 6 10 11 11 9 7 9 9
1 1 1 1 1 2 2 2 3 3 2 2 3 3 3 3 3 4 4 4 5 5 5 6 6 5 6 7 8 10 10 8 6 6 6 6 10 10 10 9 9 10 9
2 1 2 2 1 2 2 3 3 2 2 2 3 3 3 3 3 4 4 4 4 4 4 5 5 5 5 6 9 10 11 10 7 7 8 9 10 10 8 9 9 8 6
2 2 2 2 2 2 2 3 2 2 2 2 3 3 3 3 3 3 3 4 4 4 4 5 5 5 5 5 5 6 7 8 7 6 7 9 9 8 8 7 7 6 6
2 2 3 3 3 2 2 2 2 2 2 3 3 3 3 3 3 4 4 4 5 5 6 6 6 6 6 7 10 8 7 6 6 6 5 5 5 5 5 5 5 5 5
2 2 2 3 2 2 2 2 2 2 2 3 3 3 3 3 3 3 4 6 6 8 10 10 9 8 10 13 12 12 11 10 9 6 5 5 5 5 5 5 5 5 5
Wind_Direction
226 197 186 171 167 161 148 133 122 116 109 119 116 92 58 47 44 35 37 32 24 20 18 31 28 344 228 230 245 250 254 286 285 266 264 243 233 238 240 251 257 262 283
215 197 186 171 167 165 161 151 145 143 130 125 130 130 112 61 44 34 30 19 19 19 8 12 360 315 277 249 232 227 238 273 268 257 266 254 227 230 238 244 244 252 262
213 200 190 184 173 170 176 165 161 163 142 117 104 105 94 61 37 17 16 8 9 10 4 360 343 325 282 264 268 247 234 240 243 251 248 252 247 271 232 241 240 244 253
208 199 193 186 181 178 176 168 162 166 154 139 143 149 166 179 219 303 329 355 11 15 5 1 344 319 296 270 264 261 258 247 242 250 257 270 277 260 257 240 244 250 252
200 193 190 187 182 179 170 174 171 170 167 167 173 180 186 193 182 184 276 342 6 9 2 358 355 340 310 292 281 263 250 249 253 250 260 257 261 256 256 264 264 259 254
196 190 186 174 175 175 167 178 185 185 183 187 189 192 199 199 191 203 240 294 322 355 356 350 341 334 324 307 291 270 253 247 246 246 245 253 252 253 254 261 268 267 265
184 181 183 186 189 186 186 196 200 210 209 205 208 204 213 214 212 220 229 249 285 303 315 333 323 318 312 303 292 279 264 252 246 242 242 248 252 259 263 263 266 270 274
187 183 185 188 193 196 206 212 217 228 231 225 227 218 220 227 229 229 234 237 250 263 292 297 298 299 298 299 289 280 278 264 252 249 245 249 255 252 252 257 260 265 263
194 189 184 183 198 215 225 228 234 244 248 246 237 230 232 237 241 243 235 243 258 276 284 287 291 292 293 289 286 274 274 275 261 258 253 252 259 255 252 253 251 252 258
189 187 186 187 200 230 252 253 246 257 267 259 251 243 242 246 254 256 259 266 276 287 283 285 287 292 293 289 279 273 270 265 269 268 259 260 267 259 252 250 251 250 254
192 190 187 184 195 224 259 265 270 272 280 282 265 250 244 245 243 244 253 263 271 276 280 283 286 287 287 284 270 268 268 264 267 268 268 265 270 265 257 254 251 253 252
196 193 189 194 215 243 269 279 281 279 282 279 281 265 247 238 239 250 262 265 269 275 277 280 283 286 285 282 273 269 267 263 264 266 266 267 275 268 259 256 256 255 253
209 209 213 226 240 253 262 272 276 284 290 280 270 269 254 247 247 256 262 264 270 277 280 282 282 284 282 279 277 273 270 266 263 264 266 267 273 272 262 258 256 259 262
220 230 243 249 260 266 272 275 282 290 289 282 266 270 270 264 268 269 266 266 270 271 276 282 282 282 279 277 278 276 272 269 267 268 268 266 265 269 265 260 257 261 261
236 245 253 259 267 277 284 284 283 285 280 269 270 277 294 281 282 282 274 273 273 272 274 275 278 281 276 274 280 279 272 270 270 272 271 268 271 275 268 265 264 260 258
249 251 255 262 266 269 272 268 273 283 276 262 269 283 300 290 277 281 282 276 275 276 273 270 272 276 276 282 284 283 275 269 270 274 277 274 272 271 266 265 265 263 257
257 257 257 256 261 265 261 253 259 264 258 263 275 279 288 287 279 280 281 279 277 276 273 273 272 273 277 282 283 280 279 272 270 271 274 275 278 275 269 268 268 265 262
263 263 264 266 267 261 250 243 241 235 244 261 279 281 283 284 281 279 279 284 282 275 274 276 277 279 280 285 285 284 276 271 269 268 268 270 276 271 272 272 267 267 265
268 266 273 265 248 232 216 205 215 230 245 260 274 280 275 276 275 278 282 285 285 281 276 277 277 278 282 284 286 288 277 271 273 272 269 269 273 272 272 270 267 270 271
265 270 274 240 218 218 192 193 214 231 250 267 276 278 272 269 269 273 279 283 281 278 281 280 278 278 281 284 285 285 273 273 275 275 271 267 272 275 272 267 265 267 273
280 261 222 219 221 200 190 211 225 244 263 274 277 276 269 265 266 273 279 284 282 283 282 283 283 280 279 284 283 279 273 272 273 274 275 275 277 277 276 273 266 269 279
284 234 221 239 224 196 198 229 249 265 272 269 271 273 274 275 273 275 280 278 277 280 281 284 287 285 282 281 282 281 278 277 275 274 277 279 283 282 281 277 274 276 278
255 239 218 234 240 218 213 233 259 266 263 265 270 274 278 277 274 271 275 276 273 274 281 283 285 290 290 285 284 284 282 278 278 274 276 281 286 284 280 280 280 278 270
251 233 215 228 246 239 237 245 258 255 250 262 274 278 279 281 279 276 272 271 269 271 276 281 285 289 289 289 290 286 284 280 280 280 279 283 282 277 277 279 279 272 268
252 229 223 233 250 257 260 268 259 238 249 264 273 279 278 282 285 283 279 276 272 271 274 277 281 285 286 287 291 292 287 283 280 285 281 278 282 277 277 278 277 275 270
246 237 242 249 257 260 268 274 260 239 241 260 271 273 275 279 283 290 295 288 285 288 285 282 284 284 284 291 293 293 291 290 288 284 276 276 278 276 275 276 277 276 274
Height
1515 1515 1516 1518 1518 1520 1521 1523 1524 1525 1526 1527 1528 1529 1530 1530 1531 1532 1532 1533 1533 1533 1533 1533 1534 1534 1534 1534 1535 1535 1536 1536 1536 1536 1536 1536 1536 1535 1535 1535 1535 1535 1535
1512 1512 1513 1514 1515 1517 1519 1520 1522 1523 1523 1524 1525 1527 1528 1528 1529 1529 1529 1530 1530 1530 1530 1531 1531 1531 1531 1531 1532 1532 1532 1533 1533 1534 1534 1534 1534 1532 1532 1532 1532 1532 1532
1508 1509 1510 1511 1513 1514 1516 1517 1519 1520 1521 1522 1523 1524 1525 1525 1526 1526 1526 1527 1527 1527 1527 1528 1528 1528 1528 1529 1529 1529 1529 1530 1530 1531 1532 1532 1531 1530 1529 1528 1528 1528 1528
1505 1506 1508 1509 1510 1512 1514 1515 1516 1517 1518 1519 1520 1521 1521 1522 1523 1523 1523 1524 1524 1524 1524 1525 1525 1525 1525 1525 1526 1526 1526 1526 1526 1527 1528 1529 1528 1528 1526 1525 1525 1524 1524
1503 1504 1505 1506 1508 1509 1511 1512 1514 1515 1516 1517 1517 1518 1519 1519 1520 1521 1521 1521 1521 1521 1521 1521 1522 1521 1521 1522 1522 1522 1522 1523 1523 1523 1523 1524 1524 1524 1523 1521 1521 1520 1520
1501 1502 1504 1505 1506 1507 1509 1510 1511 1512 1513 1514 1514 1514 1515 1516 1516 1517 1517 1518 1517 1517 1518 1517 1518 1518 1517 1518 1518 1518 1518 1518 1519 1519 1519 1520 1520 1520 1519 1518 1517 1516 1516
1499 1500 1501 1502 1504 1505 1506 1507 1508 1509 1510 1510 1510 1511 1512 1512 1512 1513 1513 1513 1513 1513 1513 1513 1514 1513 1514 1514 1514 1514 1514 1514 1514 1515 1515 1515 1515 1515 1515 1515 1513 1512 1511
1497 1498 1499 1500 1501 1502 1504 1504 1505 1506 1506 1507 1507 1507 1508 1508 1509 1509 1509 1509 1509 1509 1509 1510 1509 1509 1509 1510 1510 1509 1509 1509 1510 1510 1510 1510 1510 1510 1510 1510 1510 1508 1507
1496 1497 1498 1499 1499 1500 1501 1502 1502 1503 1503 1503 1503 1504 1504 1504 1505 1505 1505 1505 1505 1505 1505 1505 1505 1505 1505 1505 1505 1504 1504 1505 1505 1505 1504 1504 1504 1504 1504 1505 1505 1505 1503
1495 1495 1496 1497 1498 1498 1499 1499 1499 1500 1500 1500 1500 1500 1500 1501 1501 1501 1501 1501 1501 1501 1501 1501 1501 1501 1500 1500 1500 1499 1499 1500 1499 1499 1499 1499 1499 1499 1499 1499 1499 1499 1499
1493 1493 1494 1495 1495 1496 1496 1496 1496 1496 1496 1497 1497 1497 1497 1497 1496 1496 1496 1496 1496 1497 1497 1497 1496 1496 1495 1495 1495 1494 1494 1494 1494 1494 1494 1494 1494 1493 1493 1493 1493 1493 1494
1491 1492 1492 1493 1493 1493 1493 1493 1493 1493 1493 1493 1493 1493 1493 1493 1493 1492 1492 1492 1492 1492 1492 1492 1492 1491 1491 1490 1490 1489 1489 1489 1489 1489 1489 1488 1488 1488 1487 1487 1487 1488 1488
1489 1489 1490 1490 1490 1490 1490 1490 1490 1489 1489 1489 1489 1489 1489 1489 1489 1488 1488 1488 1488 1488 1488 1488 1487 1487 1486 1486 1485 1485 1484 1484 1484 1484 1483 1483 1483 1482 1482 1482 1482 1482 1482
1487 1487 1487 1487 1487 1487 1487 1487 1486 1486 1486 1485 1485 1485 1485 1485 1485 1484 1484 1484 1484 1484 1483 1483 1483 1482 1481 1481 1480 1480 1479 1479 1479 1478 1478 1477 1477 1477 1476 1476 1476 1476 1476
1484 1484 1484 1484 1484 1484 1484 1483 1483 1482 1482 1482 1481 1481 1481 1481 1481 1481 1480 1480 1480 1480 1479 1479 1478 1477 1477 1476 1475 1475 1474 1474 1473 1473 1472 1472 1471 1471 1471 1471 1471 1471 1470
1481 1481 1481 1481 1481 1480 1480 1480 1479 1479 1478 1478 1478 1477 1477 1477 1477 1477 1477 1476 1476 1475 1475 1474 1473 1473 1472 1471 1471 1470 1469 1469 1468 1467 1467 1466 1466 1465 1465 1465 1465 1465 1465
1478 1478 1477 1478 1477 1477 1477 1476 1476 1475 1475 1474 1474 1474 1473 1473 1473 1473 1473 1472 1471 1471 1470 1469 1469 1468 1467 1467 1466 1465 1464 1463 1462 1462 1461 1461 1460 1460 1459 1459 1459 1459 1459
1475 1474 1474 1474 1474 1474 1473 1473 1472 1471 1471 1470 1470 1470 1470 1469 1469 1469 1468 1468 1467 1466 1466 1465 1464 1463 1462 1462 1461 1460 1459 1458 1457 1456 1456 1455 1455 1454 1453 1453 1453 1452 1453
1472 1471 1471 1471 1471 1470 1470 1469 1468 1468 1467 1467 1466 1466 1466 1465 1465 1465 1464 1464 1463 1462 1461 1460 1459 1458 1457 1456 1456 1455 1454 1453 1452 1451 1450 1450 1449 1449 1448 1448 1447 1446 1446
1469 1468 1467 1467 1467 1466 1466 1466 1465 1465 1464 1464 1463 1463 1462 1462 1462 1461 1460 1460 1459 1458 1457 1456 1455 1453 1452 1451 1451 1450 1449 1448 1447 1446 1445 1445 1444 1444 1443 1442 1441 1439 1439
1466 1465 1464 1464 1464 1463 1463 1462 1462 1461 1461 1461 1460 1460 1459 1458 1458 1457 1457 1456 1455 1453 1452 1451 1450 1449 1448 1447 1446 1445 1445 1444 1442 1441 1440 1439 1439 1438 1437 1436 1435 1434 1434
1462 1462 1461 1461 1461 1460 1460 1459 1459 1458 1458 1457 1457 1456 1455 1455 1454 1453 1453 1452 1451 1449 1448 1447 1446 1445 1443 1442 1441 1441 1440 1439 1438 1436 1435 1434 1434 1433 1431 1430 1429 1429 1428
1460 1459 1459 1458 1458 1457 1456 1456 1455 1455 1454 1454 1453 1452 1452 1451 1450 1449 1448 1448 1447 1446 1444 1443 1442 1440 1439 1438 1437 1436 1435 1434 1433 1432 1430 1429 1428 1427 1426 1424 1423 1423 1422
1457 1456 1456 1455 1454 1454 1453 1453 1452 1452 1451 1450 1450 1449 1448 1447 1447 1446 1445 1444 1443 1442 1441 1439 1438 1436 1435 1434 1433 1432 1430 1429 1428 1427 1425 1424 1423 1422 1420 1419 1418 1417 1416
1454 1453 1453 1452 1451 1451 1450 1450 1449 1448 1448 1447 1446 1446 1445 1444 1443 1442 1441 1440 1439 1439 1438 1436 1435 1433 1431 1430 1430 1428 1426 1425 1424 1422 1421 1419 1418 1416 1415 1413 1412 1412 1411
1451 1450 1450 1449 1448 1448 1447 1447 1446 1445 1444 1444 1443 1442 1441 1440 1439 1438 1437 1436 1436 1435 1433 1432 1431 1429 1428 1426 1425 1423 1422 1421 1420 1418 1416 1414 1413 1411 1410 1408 1407 1407 1405